map of VLC home
VLC - Airport
Location
City:  Valencia, Valenciana, Spain
Name:Manises
ICAO:LEVC
IATA:VLC

Details
Type:Airport (Aerodrome, Airfield)
Use:Public/Civil
Latitude:3929'22"N (39.489314)
Longitude:028'54"W (-0.481624)
Datum:WGS 1984
Elevation:225 ft (69 m)
Variation:0.29E (WMM2015 magnetic declination)
0.11 annual change
Runways:2
Longest:8858 × 148 ft (2700 × 45 m), paved

Time
Time Zone:UTC+1 (DST+2)
Local Time:

Weather
METAR:LEVC 182100Z 28004KT 9999 -RA FEW018 FEW030TCU BKN050 16/16 Q1010 NOSIG
TAF:LEVC 181700Z 1818/1918 30005KT 9999 SCT025 TX21/1912Z TN15/1906Z
TEMPO 1818/1904 4000 SHRA BKN014 SCT020TCU PROB40
TEMPO 1818/1904 4000 TSRA SCT020CB BKN025 PROB30
TEMPO 1904/1912 4000 SHRA FEW022TCU
BECMG 1910/1912 04008KT

Related Locations
Nearby:
Farthest:GIS: 12337 mi / 19855 km
Gisborne, GIS, NZ

Find:

   beyond  
but within

Other Information
Maps:
NOTAMs:
Links:
Sources:

  
  • flag of Spain
  • flag of Valenciana
  

Sectional Chart

Flight Planning
at skyvector.com

Satellite Image

Google Maps Satellite view

 

Copyright © 2004-2018 Karl L. Swartz. All rights reserved.
The Great Circle Mapper name and logo are trademarks of the Great Circle Mapper.
All other trademarks mentioned herein belong to their respective owners.
Please see credits for attibutions and further copyright information.

  Follow gcmap on Facebook Follow gcmap on Twitter Follow gcmap on Google+ GCmap on LinkedIn

hCard Microformat

Geo Microformat